Showing default

TYVAK-0130, 48606

Orbit data source: Space-Track

TYVAK-0130, 48606 is an American payload satellite in LEO that was launched on Sat, 15 May 2021 UTC via an FALCON 9 launch vehicle from the Air Force Eastern Test Range (AFETR). Payload-class satellites include a variety of spacecraft equipped with specific instruments for various scientific and technological missions. These include communications satellites like Starlink; space stations such as the ISS; scientific satellites like the Hubble; Earth observation satellites from companies like Planet Labs, Umbra, and HawkEye 360; GPS; miniature CubeSats for education and research; and military/defense satellites.

Loading next visibility...
Identifier
48606, 2021-041BF
Orbit
LEO
Country
Flag of USUS
Related business
Manufacturer
Tyvak NSS
Mission
Operational Commercial Tech/Ast
Bus & Motor
CUBESAT 6U, Unknown motor
Mass
~11 kg wet, ~11 kg dry
Launch date (UTC)
2021-05-15 (5 years ago)
Launch vehicle
FALCON 9
Launch site
Air Force Eastern Test Range (AFETR)
Object type
Payload
Rocket body
Debris
Shape & HBR
Box + 2 Pan, 0.1 m
Radar Cross Section
0.080 m², Medium (>0.1 m² and < 1m²)

Expand to show TLE details & history
Last TLE update: 2 days ago

TLE from 2 days ago
0 TYVAK-0130
1 48606U 21041BF  26170.98946055  .00005550  00000-0  21548-3 0  9992
2 48606  52.9939  13.0720 0010239 171.3807 188.7368 15.27589853280811
Epoch: 2026-06-19T23:44Z
TLE epoch observation values (Epoch: 2026-06-19T23:44:49.391Z)
Latitude
-0.00003°
Longitude
108.65566°
Altitude
490.844 km
Speed
7.617 km/s
True Right ascension
00h 52m 17s
True Declination
0° 00' 00"
Sunlit
Object was in daylight at epoch
Visualization orbit readout
Latitude
Unknown
Longitude
Unknown
Altitude
Unknown
Speed
Unknown
Apparent Right ascension
Unknown
Apparent Declination
Unknown
Sunlit
N/A
Visualization observer readout
Local Sidereal Time
21:40:41
Azimuth
Unknown
Elevation
Unknown
Doppler factor
Unknown
Orbital elements
Apogee altitude
490.328 km
Perigee altitude
476.277 km
Semi-major axis
6,861.44 km
Eccentricity
0.00102
Inclination
52.9939°
RAAN
13.072°
Arg. of periapsis
171.3807°
True anomaly
188.719°
Mean anomaly
188.7368°
Eccentric anomaly
188.7279°
Mean motion
3.81874 °/min
Orbital period
94.27 mins
BSTAR
0.00021548
Loading maneuver chart data...
Computing Atmospheric mass density...
Loading historical data...
Loading historical data...
Loading historical data...
Loading historical data...
Loading historical data...
Loading historical data...
Loading historical data...

Documentation

Showing up to 5 results
|